Location: Pitton
(51.0667°N, 1.7000°W)
Time: 04:22:57
(UTC+00:00)

Meteor 2-12 Rocket - Pass Details

Date: 17 September 2019
Orbit: 936 x 957 km, 82.5° (Epoch: 19 October)

Event Time Altitude Azimuth Distance (km) Brightness Sun altitude
Rises 21:29:27 0° 348° (NNW) 3,617 8.3 -27.8°
Reaches altitude 10° 21:31:57 10° 348° (NNW) 2,671 7.5 -28.1°
Maximum altitude 21:38:03 80° 263° (W) 967 4.4 -28.7°
Enters shadow 21:38:30 75° 215° (SW) 984 4.3 -28.8°
